SCP
0 0 0 0 0 0 0 0 0 0 0 0 0 0 0 0 0 0 0 0 0 0 0 0 0 0 0 0 0 0 0 0 0 0 0 0 0 0 0 0 0 0 0
0 0 0 0 0 0 0 0 0 0 0 0 0 0 0 0 0 0 0 0 0 0 0 0 0 0 0 0 0 0 0 0 0 0 0 0 0 0 0 0 0 0 0
0 0 0 0 0 0 0 0 0 0 0 0 0 0 0 0 0 0 0 0 0 0 0 0 0 0 0 0 0 0 0 0 0 0 0 0 0 0 0 0 0 0 0
0 0 0 0 0 0 0 0 0 0 0 0 0 0 0 0 0 -0 -0 0 0 0 0 0 0 0 0 0 0 0 0 0 0 0 0 0 0 0 0 0 0 0 0
0 0 0 0 0 0 0 0 0 0 0 0 0 0 0 0 -0 0 0 0 0 0 0 0 0 0 0 0 0 0 0 0 0 0 0 0 0 0 0 0 0 0 0
0 0 0 0 0 0 0 0 0 0 0 0 0 0 0 -0 -0 0 0 0 0 0 0 0 0 0 0 0 0 0 0 0 0 0 0 0 0 0 0 0 0 0 0
0 0 0 0 0 0 0 0 0 0 0 0 0 0 0 -0 0 0 0 0 0 0 0 0 0 0 0 0 0 0 0 0 0 0 0 0 0 0 0 0 0 0 0
0 0 0 0 0 0 0 0 0 0 0 0 0 0 0 -0 0 0 0 0 0 0 0 0 0 0 0 0 0 0 0 0 0 0 0 0 0 0 0 0 0 0 0
0 0 0 0 0 0 0 0 0 0 0 0 0 0 0 0 0 0 0 0 0 0 0 0 0 0 0 0 0 0 0 0 0 0 0 0 0 0 0 0 0 0 0
0 0 0 0 0 0 0 0 0 0 0 0 0 0 0 0 0 0 0 0 0 0 0 0 0 0 0 0 0 0 0 0 0 0 0 0 0 0 0 0 0 0 0
0 0 0 0 0 0 0 0 0 0 0 0 0 0 0 0 0 0 0 0 0 0 0 0 0 0 0 0 0 0 0 0 0 0 0 0 0 0 0 0 0 0 0
0 0 0 0 0 0 0 0 0 0 0 0 0 0 0 0 0 0 0 0 0 0 0 0 0 0 0 0 0 0 0 0 0 0 0 0 0 0 0 0 0 0 0
0 0 0 0 0 0 0 0 0 0 0 0 0 0 0 0 0 0 -0 -0 -0 0 0 0 0 0 0 0 0 0 0 0 0 0 0 0 0 0 0 0 0 0 0
0 0 0 0 0 0 0 0 0 0 0 0 0 0 0 0 -0 -0 -0 -0 0 0 0 0 0 0 0 0 0 0 0 0 0 0 0 0 0 0 0 0 0 0 0
0 0 0 0 0 0 0 0 0 0 0 0 0 0 0 0 0 -0 0 0 0 0 0 0 0 0 0 0 0 0 0 0 0 0 0 0 0 0 0 0 0 0 0
0 0 0 0 0 0 0 0 0 0 0 0 0 0 0 0 0 0 0 0 0 0 0 0 0 0 0 0 0 0 0 0 0 0 0 0 0 0 0 0 0 0 0
0 0 0 0 0 0 0 0 0 0 0 0 0 0 0 0 0 0 0 0 0 0 0 0 0 0 0 0 0 0 0 0 0 0 0 0 0 0 0 0 0 0 0
0 0 0 0 0 0 0 0 0 0 0 0 0 0 0 0 0 0 0 0 0 0 0 0 0 0 0 0 0 0 0 0 0 0 0 0 0 0 0 0 0 0 0
0 0 0 0 0 0 0 0 0 0 0 0 0 0 0 0 0 0 0 0 0 0 0 0 0 0 0 0 0 0 0 0 0 0 0 0 0 0 0 0 0 0 0
0 0 0 0 0 0 0 0 0 0 0 0 0 0 0 0 0 0 0 0 0 0 0 0 0 0 0 0 0 0 0 0 0 0 0 0 0 0 0 0 0 0 0
0 0 0 0 0 0 0 0 0 0 0 0 0 0 0 0 0 0 0 0 0 0 0 0 0 0 0 0 0 0 0 0 0 0 0 0 0 0 0 0 0 0 0
0 0 0 0 0 0 0 0 0 0 0 0 0 0 0 0 0 0 0 0 0 0 0 0 0 0 0 0 0 0 0 0 0 0 0 0 0 0 0 0 0 0 0
0 0 0 0 0 0 0 0 0 0 0 0 0 0 0 0 0 0 0 0 0 0 0 0 0 0 0 0 0 0 0 0 0 0 0 0 0 0 0 0 0 0 0
0 0 0 0 0 0 0 0 0 0 0 0 0 0 0 0 0 0 0 0 0 0 0 0 0 0 0 0 0 -0 -0 -0 0 0 0 0 0 0 0 0 0 0 0
0 0 0 0 0 0 0 0 0 0 0 0 0 0 0 0 0 0 0 0 0 0 0 0 0 0 0 0 0 0 0 0 0 0 0 0 0 0 0 0 0 0 0
0 0 0 0 0 0 0 0 0 0 0 0 0 0 0 0 0 0 0 0 0 0 0 0 0 0 0 0 0 0 0 0 0 0 0 0 0 0 0 0 0 0 0
Wind_Speed
4 3 3 3 3 3 3 3 3 3 4 5 5 6 6 6 6 6 6 7 7 8 7 8 8 7 7 6 5 6 6 6 12 10 7 7 7 8 9 8 8 9 9
4 3 3 2 2 2 2 2 3 3 4 4 4 5 6 7 6 7 9 9 9 10 10 9 10 8 9 7 7 8 8 7 10 15 11 8 9 8 9 10 8 8 8
4 4 3 2 1 1 1 2 2 3 3 4 4 5 6 7 7 8 8 9 10 11 12 12 12 10 11 8 8 10 9 10 9 12 13 8 8 7 8 8 8 8 8
5 5 4 3 2 1 0 1 2 3 4 5 6 6 7 8 9 9 10 11 12 13 13 13 13 12 13 12 11 11 10 11 11 12 12 9 9 8 8 8 8 7 8
6 5 5 4 3 2 1 1 2 3 5 6 6 7 7 7 7 11 13 13 14 15 14 14 14 17 21 18 15 13 12 11 11 12 13 12 10 7 8 6 10 7 9
7 6 5 4 3 2 1 2 3 4 5 6 6 7 8 8 15 20 17 14 15 16 16 15 15 16 19 23 26 25 23 17 13 13 14 15 14 9 7 8 10 10 10
7 6 5 5 3 2 1 3 4 5 6 6 7 7 9 12 19 21 22 17 15 14 15 15 13 13 15 16 19 23 22 24 25 19 19 19 17 13 12 13 12 13 14
7 6 6 5 3 1 1 2 4 4 5 6 8 9 10 12 20 22 23 16 13 13 14 15 16 16 15 18 17 16 17 16 18 16 16 18 17 16 15 17 17 17 16
8 7 6 5 3 1 2 3 3 4 6 7 7 7 9 13 19 22 22 12 11 14 14 15 16 16 22 26 20 16 17 16 20 25 27 26 29 30 24 15 14 15 17
8 7 6 5 3 2 2 3 3 4 6 7 8 8 10 11 18 22 22 9 10 11 12 14 18 22 25 27 19 16 17 16 15 16 19 22 21 21 26 19 14 15 16
6 6 5 3 2 2 2 2 3 5 6 7 9 9 9 11 16 20 21 11 11 12 12 12 13 25 29 29 27 19 22 23 16 15 15 14 13 13 13 14 15 15 17
6 5 4 2 1 1 2 3 4 5 6 7 8 9 8 9 13 17 23 22 22 14 13 13 15 28 31 32 26 25 31 27 13 11 12 12 12 12 12 14 17 18 19
6 4 3 2 2 2 3 4 4 4 5 6 6 8 8 8 10 19 22 24 26 17 14 23 28 32 30 22 24 29 23 13 11 13 14 14 13 13 13 13 14 17 20
6 4 3 3 3 3 3 4 4 4 5 6 6 8 9 8 8 8 9 12 16 16 13 16 23 25 22 21 17 15 11 11 12 14 14 14 12 12 12 12 13 13 15
5 4 4 4 4 3 4 5 6 7 8 8 8 8 8 8 11 21 17 12 12 12 13 8 8 10 10 10 10 10 10 11 11 12 13 13 13 13 13 12 12 13 15
5 5 4 3 3 3 4 5 10 12 16 17 17 13 9 14 20 21 22 23 23 22 12 7 9 9 10 11 12 12 11 11 12 12 12 12 12 13 13 12 13 14 14
5 4 3 3 3 4 4 4 6 8 11 13 12 13 14 16 18 19 19 20 18 16 6 7 8 9 10 11 11 12 13 13 13 12 12 12 12 12 12 13 13 13 13
5 5 4 4 4 4 4 4 4 5 7 6 8 13 14 15 16 17 17 13 9 8 4 6 8 9 10 11 11 12 13 13 13 12 12 11 11 11 12 13 13 13 12
5 4 4 4 4 4 4 5 5 5 6 7 7 7 10 14 14 14 12 4 6 8 7 7 8 9 10 10 11 12 12 13 14 13 12 11 10 10 11 12 12 14 12
4 7 5 4 4 4 4 4 5 5 5 5 6 6 6 5 4 6 5 4 5 6 7 8 8 9 10 10 11 11 12 12 13 12 12 12 11 10 11 12 11 10 8
4 4 6 4 4 4 4 5 5 5 5 5 6 8 12 5 4 6 6 5 5 6 8 8 9 9 9 10 10 12 13 12 12 12 12 12 12 11 10 9 8 6 3
4 4 4 4 4 4 5 5 5 5 5 6 6 7 11 5 4 5 6 6 6 6 6 8 8 8 9 10 11 12 12 12 12 12 12 12 11 11 10 8 6 3 1
4 4 4 4 4 5 5 4 5 5 5 6 6 5 5 5 5 6 6 7 7 7 7 6 8 9 8 9 10 11 13 12 11 12 12 11 11 10 8 7 6 4 4
4 5 5 4 4 4 5 5 5 5 6 5 5 5 6 5 6 7 7 7 7 7 7 7 8 11 14 12 10 11 12 13 11 9 12 10 10 8 7 6 6 6 6
4 4 5 5 5 5 5 5 5 5 5 6 5 6 5 5 6 6 6 6 8 8 10 9 8 9 12 16 15 13 18 19 11 9 8 8 8 8 7 7 6 7 7
4 5 5 4 5 5 5 6 6 6 6 6 5 5 6 6 6 6 6 6 7 8 9 9 9 12 15 13 14 18 19 18 12 11 8 6 7 7 7 6 8 7 7
Wind_Direction
155 141 125 110 90 72 56 34 14 3 358 353 346 342 338 335 333 326 316 309 305 301 295 291 287 287 285 283 279 276 272 264 273 281 280 284 275 269 273 266 257 253 252
181 165 153 136 110 75 39 10 357 348 342 335 331 330 327 328 322 316 311 311 303 301 300 294 289 287 279 278 277 274 272 265 270 280 283 284 277 270 268 267 263 256 248
186 179 177 175 162 108 19 0 352 342 336 337 338 331 327 324 318 310 302 301 298 297 297 296 295 292 289 282 274 275 275 274 268 275 278 276 278 273 272 266 257 257 253
189 188 194 193 176 158 68 14 350 343 340 342 336 329 327 323 317 312 313 310 304 299 298 297 296 293 292 291 285 279 277 276 273 274 278 275 271 270 267 271 270 251 253
189 193 196 173 153 140 91 11 346 347 344 335 331 328 327 319 312 317 314 307 304 303 301 299 298 298 297 294 290 288 285 281 280 278 279 279 272 264 264 261 268 268 256
189 192 174 163 158 142 54 1 347 343 338 331 327 322 318 315 314 315 313 308 304 303 303 303 301 295 294 295 294 292 289 286 285 282 281 278 278 273 270 268 271 272 271
188 179 171 167 163 137 23 355 342 333 328 323 317 315 309 305 310 312 312 308 302 300 299 298 297 297 297 293 291 290 289 287 284 282 280 279 284 287 288 281 272 267 265
182 177 171 167 163 136 18 334 323 317 317 312 308 303 298 299 308 311 311 306 298 295 293 293 293 292 291 290 289 285 284 283 281 280 277 280 282 283 279 280 281 280 275
189 182 172 165 162 163 305 302 303 304 302 298 292 292 294 298 306 308 307 301 295 295 293 289 287 286 286 288 287 283 283 281 283 280 278 279 281 284 284 280 271 266 265
194 172 156 155 163 214 263 283 283 290 290 294 294 293 290 288 296 304 307 298 293 290 287 283 282 283 284 287 284 280 278 276 273 270 272 275 277 278 279 274 274 270 268
152 141 146 151 171 227 259 268 281 287 290 289 290 288 282 282 291 301 304 299 291 291 291 290 287 289 289 288 285 278 274 276 271 266 266 266 265 265 265 263 260 260 263
140 147 157 167 212 230 254 271 272 276 285 284 285 288 281 282 287 296 302 303 303 298 293 290 287 290 291 291 288 281 284 286 279 275 271 269 266 264 262 261 261 260 258
147 165 183 213 233 237 246 264 267 259 267 281 283 288 291 285 286 299 304 304 302 300 292 294 298 301 303 300 295 294 292 284 277 273 270 269 267 266 266 264 263 263 262
166 185 200 219 237 235 241 246 247 248 255 264 271 277 283 286 289 292 290 296 302 303 299 303 311 313 311 309 307 304 296 286 281 277 275 274 273 269 265 262 263 262 262
176 192 209 218 231 249 250 242 250 238 236 248 253 260 284 298 299 308 313 311 310 311 327 334 325 319 315 312 308 305 300 295 288 280 277 275 272 269 266 263 262 259 257
186 201 207 216 227 242 258 274 275 276 278 278 283 290 297 300 310 318 322 326 333 337 345 329 318 315 314 313 312 310 306 300 294 289 282 275 272 270 269 266 264 258 253
195 201 205 221 232 243 252 266 288 300 295 296 296 304 307 312 321 328 334 342 345 349 345 314 312 313 312 310 309 307 306 304 299 291 284 279 273 270 269 269 269 262 252
202 214 217 221 230 237 243 251 258 277 296 296 298 305 312 323 328 336 346 354 337 339 315 308 311 310 309 309 309 308 307 308 307 302 294 284 277 272 270 269 270 262 256
207 216 218 223 228 234 241 248 251 256 267 282 297 303 315 319 329 340 356 351 313 316 316 310 306 307 308 307 306 307 308 309 310 311 306 297 288 280 274 272 273 267 260
219 229 223 220 227 233 239 245 249 253 260 271 280 290 300 302 326 329 330 304 298 300 304 307 308 307 307 307 308 309 312 312 315 315 314 311 305 295 286 281 277 276 264
218 231 234 229 229 231 235 239 245 248 254 263 268 279 293 310 310 304 304 301 300 303 305 306 306 308 307 308 310 310 311 313 315 317 317 315 313 309 303 295 289 281 271
220 224 224 228 233 236 238 239 242 248 254 263 274 288 304 308 293 292 292 293 291 286 287 294 298 299 303 309 311 312 312 315 318 320 319 318 317 316 315 315 317 321 15
220 230 234 233 234 241 245 242 242 246 252 255 267 278 285 280 278 281 284 288 292 293 292 291 293 297 302 307 306 307 311 315 319 319 320 319 322 325 328 334 345 7 41
219 229 238 241 237 238 244 247 246 250 252 257 260 264 270 272 275 280 282 285 290 291 291 291 290 293 301 309 308 307 308 317 325 322 321 323 328 333 339 352 10 32 52
229 233 239 243 242 243 247 251 251 252 255 259 261 266 269 272 276 277 279 283 289 291 295 297 293 297 304 308 307 307 312 323 337 339 331 334 341 348 355 4 18 34 49
232 234 239 241 241 241 244 250 254 256 257 261 261 262 269 274 276 279 282 285 290 296 298 299 297 300 304 304 305 312 318 330 356 356 348 346 356 5 8 18 26 36 44